Regional Weather Roundup
Issued by NWS

Home | Current Version | Previous Version | Text Only | Print | Product List | Glossary Off
Versions: 1 2 3 4 5 6 7 8 9 10 11 12 13 14 15 16 17 18 19 20 21 22 23 24 25 26 27 28 29 30 31 32 33 34 35 36 37 38 39 40 41 42 43 44 45 46 47 48 49 50

000
ASUS43 KLOT 271306
RWRIL

ILLINOIS REGIONAL WEATHER ROUNDUP
NATIONAL WEATHER SERVICE CHICAGO/ROMEOVILLE IL
800 AM CDT WED AUG 27 2014

NOTE: "FAIR" INDICATES FEW OR NO CLOUDS BELOW 12,000 FEET WITH NO
SIGNIFICANT WEATHER AND/OR OBSTRUCTIONS TO VISIBILITY.

* THESE STATIONS ARE NOT UNDER NWS QUALITY CONTROL. THEY ALSO MAY NOT
  REPORT WEATHER SUCH AS PRECIPITATION OR FOG.

ILZ001-002-007-009-015-016-024-271400-
NORTHWEST ILLINOIS

CITY           SKY/WX    TMP DP  RH WIND       PRES   REMARKS
MOLINE         MOSUNNY   71  61  70 NE8       30.14R
STERLING*      PTSUNNY   66  61  82 NE6       30.15S
SAVANNA*       MOSUNNY   66  59  77 NE5       30.16R
$$

ILZ003-004-008-010-011-017-018-271400-
NORTH CENTRAL ILLINOIS

CITY           SKY/WX    TMP DP  RH WIND       PRES   REMARKS
ROCKFORD       MOSUNNY   68  58  70 NE9       30.16S
FREEPORT*      MOSUNNY   63  60  90 CALM      30.19R
ROCHELLE*      SUNNY     66  60  79 NE9       30.16R
DE KALB*       SUNNY     65  60  84 NE6       30.16S
PERU*          MOSUNNY   69  63  81 NE9       30.14S
$$

ILZ005-006-012>014-019>023-271400-
NORTHEAST ILLINOIS

CITY           SKY/WX    TMP DP  RH WIND       PRES   REMARKS
CHICAGO-OHARE  MOSUNNY   71  61  70 NE6       30.14S
CHICAGO-MIDWAY MOSUNNY   74  64  71 NE7       30.14R
AURORA         SUNNY     69  62  78 N7        30.15R
LANSING*       SUNNY     70  63  78 E5        30.15R
JOLIET*        SUNNY     71  64  81 E3        30.15R
WAUKEGAN       MOSUNNY   67  61  81 VRB3      30.14S
DUPAGE AIRPORT SUNNY     70  63  78 N3        30.14S
KANKAKEE*      CLOUDY    71  64  79 NE7       30.14R
WHEELING       MOSUNNY   70  63  78 N3        30.16S
MORRIS*        SUNNY     71  68  90 NE3       30.14R
ROMEOVILLE*    SUNNY     71  64  79 E7        30.14R
NORTHERLY ISL    N/A     72  63  73 N7          N/A
$$

LMZ740>746-271400-
SOUTHERN LAKE MICHIGAN

STATION/POSITION SKY/WX   TEMP    WIND        PRES    VSBY  WAVE
                          AIR SEA DIR/SP/G                  HT/PER
                          (F)     (DEG/KT/KT) (MB)    (MI)  (FT/S)
SOUTHERN BUOY              68 69   80/  4/  6 1020.7F         0
WAUKEGAN HARBOR            68     350/  6/  7   N/A
HARRISON CRIB              70      30/  8/ 10   N/A
BURNHAM HARBOR             72      30/  7/  7   N/A
CALUMET HARBOR             71      30/  5/  7 1019.3F
MICHIGAN CITY              69      30/  9/ 11   N/A
MICHIGAN CITY 6N           71 73   50/  8/ 12   N/A           1/ 3
ST. JOSEPH                 69 74   60/  8/ 10   N/A           1
$$

ILZ025>027-034>036-040-047-049-050-058-095>099-271400-
WEST-CENTRAL ILLINOIS

CITY           SKY/WX    TMP DP  RH WIND       PRES   REMARKS
QUINCY         SUNNY     72  69  90 NE12      30.11R
GALESBURG*     SUNNY     71  67  87 NE7       30.13R
MACOMB*        MOSUNNY   70  67  90 NE3       30.14R
JACKSONVILLE*  SUNNY     74  70  87 SE5       30.13R
PITTSFIELD*    SUNNY     75  71  87 E5        30.12R
$$

ILZ028>032-037-038-041>044-048-051>054-059>061-271400-
CENTRAL ILLINOIS

CITY           SKY/WX    TMP DP  RH WIND       PRES   REMARKS
PONTIAC        CLOUDY    73  68  83 NE3       30.13R
DECATUR        SUNNY     72  68  87 CALM      30.11R
PEORIA         PTSUNNY   74  66  76 E9        30.12R
LACON*         SUNNY     71  66  82 NE5       30.12R
LINCOLN*       PTSUNNY   72  69  91 CALM      30.10R
SPRINGFIELD    SUNNY     74  69  85 CALM      30.11R
TAYLORVILLE    SUNNY     72  68  88 CALM      30.11S
$$

ILZ033-039-045-046-055>057-062-063-271400-
EAST-CENTRAL ILLINOIS

CITY           SKY/WX    TMP DP  RH WIND       PRES   REMARKS
CHAMPAIGN      MOSUNNY   74  68  81 N8        30.11S
DANVILLE*      RAIN      69  69  98 N3        30.09S
RANTOUL*       CLOUDY    73  70  88 NE9       30.13R FOG
MATTOON        MOSUNNY   73  68  84 CALM      30.10R
PARIS*         CLOUDY    72  71  98 CALM      30.12R
$$

ILZ079-100>102-271400-
SOUTHWEST ILLINOIS

CITY           SKY/WX    TMP DP  RH WIND       PRES   REMARKS
BELLEVILLE     SUNNY     74  72  94 NE3       30.10R
SPARTA*        SUNNY     74  72  95 CALM      30.11R FOG
$$

ILZ064>066-069>071-074>076-080>082-084>086-088>090-092>094-271400-
SOUTH-CENTRAL ILLINOIS

CITY           SKY/WX    TMP DP  RH WIND       PRES   REMARKS
CARBONDALE     SUNNY     76  74  93 CALM      30.09S FOG
CAIRO*         SUNNY     78  76  92 CALM      30.09R FOG     HX  80
EFFINGHAM*     SUNNY     73  67  80 CALM      30.11S
MT. VERNON     SUNNY     73  70  88 CALM      30.11S
SALEM*         SUNNY     76  72  85 CALM      30.11R
METROPOLIS*    SUNNY     75  75  98 CALM      30.08S FOG
$$

ILZ067-068-072-073-078-083-087-091-271400-
SOUTHEAST ILLINOIS

CITY           SKY/WX    TMP DP  RH WIND       PRES   REMARKS
LAWRENCEVILLE  SUNNY     76  72  87 CALM      30.10S
FLORA*         SUNNY     73  70  89 CALM      30.10F
FAIRFIELD*     SUNNY     75  73  94 CALM      30.10R FOG
HARRISBURG*    SUNNY     75  75 100 CALM      30.10S FOG
ROBINSON*      MOSUNNY   74  73  98 CALM      30.12R
CARMI*         MOSUNNY   75  75 100 CALM      30.09S FOG
$$

ABBREVIATIONS USED IN REMARKS
   TC - TEMPERATURE IN CELSIUS
  WCI - WIND CHILL INDEX
   HX - HEAT INDEX
  VSB - VISIBILITY
$$




USA.gov is the U.S. government's official web portal to all federal, state and local government web resources and services.